When you browse on this site, cookies collect data to enhance your experience and personalize the content and advertising you see.
Visit our Privacy Policy to learn more. By continuing to use the site, you agree to this use of cookies and data.
  • en Belgique
  • Liste des pays
  • À 7 jours
  • Température de l'eau
  • Carte météo
  • Widgets météo
  • user-avatar
    Se connecter

    Météo par heure à Siempang

    Ce jour, 5 Juin, Vendredi

    Heure Température Précipitation Vent Pression Humidité
    00:00 +25°C° 0.3 mm 0 m/s 750 mmHg 96%
    01:00 +27°C° 0 mm 1 m/s 750 mmHg 96%
    02:00 +26°C° 1 mm 1 m/s 750 mmHg 96%
    03:00 +26°C° 1 mm 1 m/s 750 mmHg 97%
    04:00 +26°C° 1 mm 1 m/s 750 mmHg 98%
    05:00 +26°C° 0.3 mm 1 m/s 750 mmHg 97%
    06:00 +27°C° 0.3 mm 1 m/s 751 mmHg 96%
    07:00 +27°C° 0 mm 1 m/s 751 mmHg 96%
    08:00 +28°C° 0.2 mm 1 m/s 751 mmHg 90%
    09:00 +30°C° 0.2 mm 1 m/s 751 mmHg 84%
    10:00 +31°C° 0.2 mm 1 m/s 751 mmHg 77%
    11:00 +32°C° 1.1 mm 1 m/s 751 mmHg 73%
    12:00 +33°C° 1.1 mm 1 m/s 750 mmHg 69%
    13:00 +34°C° 1.1 mm 1 m/s 750 mmHg 65%
    14:00 +34°C° 0.2 mm 1 m/s 749 mmHg 65%
    15:00 +32°C° 0.2 mm 0 m/s 748 mmHg 64%
    16:00 +32°C° 0.2 mm 0 m/s 748 mmHg 64%
    17:00 +30°C° 0.1 mm 0 m/s 748 mmHg 71%
    18:00 +29°C° 0.1 mm 0 m/s 748 mmHg 79%
    19:00 +27°C° 0.1 mm 0 m/s 749 mmHg 86%
    20:00 +27°C° 0.4 mm 0 m/s 749 mmHg 88%
    21:00 +26°C° 0.4 mm 0 m/s 750 mmHg 90%
    22:00 +26°C° 0.4 mm 0 m/s 750 mmHg 92%
    23:00 +26°C° 0 mm 0 m/s 750 mmHg 92%

    Demain, 6 Juin, Samedi

    Heure Température Précipitation Vent Pression Humidité
    00:00 +27°C° 0 mm 1 m/s 749 mmHg 93%
    01:00 +27°C° 0 mm 1 m/s 749 mmHg 93%
    02:00 +27°C° 0.1 mm 1 m/s 749 mmHg 94%
    03:00 +27°C° 0.1 mm 1 m/s 749 mmHg 95%
    04:00 +27°C° 0.1 mm 1 m/s 749 mmHg 96%
    05:00 +27°C° 0 mm 1 m/s 749 mmHg 94%
    06:00 +27°C° 0 mm 1 m/s 750 mmHg 93%
    07:00 +28°C° 0 mm 1 m/s 750 mmHg 92%
    08:00 +30°C° 0 mm 1 m/s 750 mmHg 84%
    09:00 +31°C° 0 mm 1 m/s 750 mmHg 76%
    10:00 +33°C° 0 mm 1 m/s 750 mmHg 68%
    11:00 +33°C° 1.3 mm 1 m/s 750 mmHg 71%
    12:00 +33°C° 1.3 mm 1 m/s 749 mmHg 74%
    13:00 +33°C° 1.3 mm 1 m/s 749 mmHg 77%
    14:00 +33°C° 0.5 mm 1 m/s 748 mmHg 74%
    15:00 +34°C° 0.5 mm 1 m/s 748 mmHg 71%
    16:00 +32°C° 0.5 mm 0 m/s 747 mmHg 68%
    17:00 +32°C° 1.5 mm 1 m/s 748 mmHg 76%
    18:00 +30°C° 1.5 mm 1 m/s 748 mmHg 85%
    19:00 +28°C° 1.5 mm 1 m/s 749 mmHg 93%
    20:00 +28°C° 1.5 mm 1 m/s 749 mmHg 94%
    21:00 +28°C° 1.5 mm 1 m/s 750 mmHg 94%
    22:00 +27°C° 1.5 mm 1 m/s 750 mmHg 95%
    23:00 +27°C° 1.7 mm 1 m/s 750 mmHg 96%

    Après-demain, 7 Juin, Dimanche

    Heure Température Précipitation Vent Pression Humidité
    00:00 +27°C° 1.7 mm 1 m/s 750 mmHg 96%
    01:00 +27°C° 1.7 mm 1 m/s 750 mmHg 97%
    02:00 +26°C° 2.4 mm 1 m/s 749 mmHg 98%
    03:00 +26°C° 2.4 mm 1 m/s 749 mmHg 98%
    04:00 +26°C° 2.4 mm 1 m/s 749 mmHg 98%
    05:00 +26°C° 0 mm 1 m/s 750 mmHg 98%
    06:00 +27°C° 0 mm 1 m/s 750 mmHg 97%
    07:00 +27°C° 0 mm 1 m/s 750 mmHg 97%
    08:00 +29°C° 0 mm 1 m/s 750 mmHg 90%
    09:00 +28°C° 0 mm 0 m/s 750 mmHg 82%
    10:00 +30°C° 0 mm 0 m/s 750 mmHg 75%
    11:00 +30°C° 0 mm 0 m/s 749 mmHg 72%
    12:00 +31°C° 0 mm 0 m/s 749 mmHg 69%
    13:00 +32°C° 0 mm 0 m/s 748 mmHg 65%
    14:00 +32°C° 0.8 mm 0 m/s 747 mmHg 68%
    15:00 +31°C° 0.8 mm 0 m/s 747 mmHg 71%
    16:00 +31°C° 0.8 mm 0 m/s 746 mmHg 74%
    17:00 +29°C° 1.7 mm 0 m/s 747 mmHg 80%
    18:00 +30°C° 1.7 mm 1 m/s 748 mmHg 87%
    19:00 +28°C° 1.7 mm 1 m/s 748 mmHg 94%
    20:00 +28°C° 0.1 mm 1 m/s 749 mmHg 94%
    21:00 +25°C° 0.1 mm 0 m/s 749 mmHg 94%
    22:00 +25°C° 0.1 mm 0 m/s 750 mmHg 95%
    23:00 +25°C° 0 mm 0 m/s 749 mmHg 95%

    8 Juin, Lundi

    Heure Température Précipitation Vent Pression Humidité
    00:00 +25°C° 0 mm 0 m/s 749 mmHg 96%
    01:00 +24°C° 0 mm 0 m/s 749 mmHg 96%
    02:00 +24°C° 0.8 mm 0 m/s 749 mmHg 96%
    03:00 +24°C° 0.8 mm 0 m/s 749 mmHg 97%
    04:00 +24°C° 0.8 mm 0 m/s 749 mmHg 97%
    05:00 +24°C° 0 mm 0 m/s 749 mmHg 96%
    06:00 +25°C° 0 mm 0 m/s 749 mmHg 96%
    07:00 +25°C° 0 mm 0 m/s 750 mmHg 95%
    08:00 +28°C° 0 mm 0 m/s 750 mmHg 84%
    09:00 +32°C° 0 mm 1 m/s 750 mmHg 73%
    10:00 +34°C° 0 mm 1 m/s 750 mmHg 62%
    11:00 +35°C° 0 mm 1 m/s 749 mmHg 59%
    12:00 +35°C° 0 mm 1 m/s 749 mmHg 56%
    13:00 +36°C° 0 mm 1 m/s 748 mmHg 52%
    14:00 +36°C° 0.1 mm 1 m/s 748 mmHg 54%
    15:00 +36°C° 0.1 mm 1 m/s 747 mmHg 56%
    16:00 +35°C° 0.1 mm 1 m/s 747 mmHg 58%
    17:00 +33°C° 0.2 mm 1 m/s 747 mmHg 66%
    18:00 +31°C° 0.2 mm 1 m/s 747 mmHg 74%
    19:00 +29°C° 0.2 mm 1 m/s 748 mmHg 82%
    20:00 +27°C° 0 mm 0 m/s 748 mmHg 85%
    21:00 +26°C° 0 mm 0 m/s 749 mmHg 87%
    22:00 +26°C° 0 mm 0 m/s 750 mmHg 90%
    23:00 +26°C° 0 mm 0 m/s 749 mmHg 90%

    9 Juin, Mardi

    Heure Température Précipitation Vent Pression Humidité
    00:00 +25°C° 0 mm 0 m/s 749 mmHg 91%
    01:00 +25°C° 0 mm 0 m/s 749 mmHg 92%
    02:00 +25°C° 0.4 mm 0 m/s 749 mmHg 93%
    03:00 +25°C° 0.4 mm 0 m/s 749 mmHg 94%
    04:00 +24°C° 0.4 mm 0 m/s 749 mmHg 96%
    05:00 +25°C° 1.2 mm 0 m/s 749 mmHg 96%
    06:00 +25°C° 1.2 mm 0 m/s 750 mmHg 95%
    07:00 +25°C° 1.2 mm 0 m/s 750 mmHg 95%
    08:00 +27°C° 0.2 mm 0 m/s 750 mmHg 85%
    09:00 +31°C° 0.2 mm 1 m/s 750 mmHg 74%
    10:00 +34°C° 0.2 mm 1 m/s 751 mmHg 64%
    11:00 +35°C° 0 mm 1 m/s 750 mmHg 59%
    12:00 +36°C° 0 mm 1 m/s 749 mmHg 54%
    13:00 +37°C° 0 mm 1 m/s 748 mmHg 49%
    14:00 +37°C° 0 mm 1 m/s 748 mmHg 50%
    15:00 +37°C° 0 mm 1 m/s 747 mmHg 51%
    16:00 +34°C° 0 mm 0 m/s 747 mmHg 52%
    17:00 +32°C° 0 mm 0 m/s 747 mmHg 60%
    18:00 +31°C° 0 mm 0 m/s 747 mmHg 67%
    19:00 +29°C° 0 mm 0 m/s 748 mmHg 75%
    20:00 +28°C° 0 mm 0 m/s 748 mmHg 78%
    21:00 +27°C° 0 mm 0 m/s 749 mmHg 82%
    22:00 +27°C° 0 mm 0 m/s 750 mmHg 85%
    23:00 +26°C° 0.3 mm 0 m/s 749 mmHg 88%

    10 Juin, Mercredi

    Heure Température Précipitation Vent Pression Humidité
    00:00 +26°C° 0.3 mm 0 m/s 749 mmHg 91%
    01:00 +25°C° 0.3 mm 0 m/s 749 mmHg 93%
    02:00 +25°C° 0.4 mm 0 m/s 749 mmHg 94%
    03:00 +25°C° 0.4 mm 0 m/s 749 mmHg 95%
    04:00 +25°C° 0.4 mm 0 m/s 749 mmHg 96%
    05:00 +25°C° 0 mm 0 m/s 749 mmHg 96%
    06:00 +26°C° 0 mm 0 m/s 749 mmHg 95%
    07:00 +26°C° 0 mm 0 m/s 750 mmHg 94%
    08:00 +27°C° 1 mm 0 m/s 750 mmHg 90%
    09:00 +29°C° 1 mm 0 m/s 750 mmHg 85%
    10:00 +30°C° 1 mm 0 m/s 750 mmHg 80%
    11:00 +33°C° 1.6 mm 1 m/s 749 mmHg 79%
    12:00 +33°C° 1.6 mm 1 m/s 749 mmHg 77%
    13:00 +33°C° 1.6 mm 1 m/s 748 mmHg 76%
    14:00 +33°C° 1.7 mm 1 m/s 748 mmHg 81%
    15:00 +32°C° 1.7 mm 1 m/s 748 mmHg 86%
    16:00 +31°C° 1.7 mm 1 m/s 748 mmHg 91%
    17:00 +30°C° 2.1 mm 1 m/s 748 mmHg 92%
    18:00 +29°C° 2.1 mm 2 m/s 749 mmHg 94%
    19:00 +27°C° 2.1 mm 2 m/s 749 mmHg 95%
    20:00 +27°C° 1.9 mm 1 m/s 750 mmHg 96%
    21:00 +27°C° 1.9 mm 1 m/s 750 mmHg 97%
    22:00 +24°C° 1.9 mm 0 m/s 751 mmHg 97%
    23:00 +24°C° 0.3 mm 0 m/s 751 mmHg 98%
    Voir plus